Location: Bogis-Bossey
(46.3500°N, 6.1667°E)
Time: 19:11:45
(UTC+00:00)

Cosmos 1371 Rocket - Pass Details

Date: 17 August 2022
Orbit: 754 x 788 km, 74.0° (Epoch: 01 October)

Event Time Altitude Azimuth Distance (km) Brightness Sun altitude
Rises 20:44:27 0° 341° (NNW) 3,279 8.4 -18.7°
Reaches altitude 10° 20:46:55 10° 345° (NNW) 2,342 7.4 -19.0°
Maximum altitude 20:52:09 57° 64° (ENE) 912 4.2 -19.6°
Enters shadow 20:53:51 39° 121° (ESE) 1,147 4.4 -19.8°
